^^

..:: Storico WU ::..




Lo storico viene creato da WUnderground con i dati che la stazione Meteomincio invia al loro server. L' aggiornamento viene fatto ogni 5 minuti circa, tuttavia possono esserci intervalli pił ampi a causa di errori, interruzioni di servizio o problemi nell' invio tramite FTP.


Storico stazione MeteoMincio
Giorno Sommario per Novembre 04, 2022 Unità:  Inglese    Metrico   Entrambi
Giorno Settimana Mese Anno
  Max: Min: Media:
Temperatura: 64.4 °F 48.2 °F 57.2 °F
Dew Point: 59 °F 44.6 °F 52.2 °F
Umidità: 97% 57% 84%
Velocità vento: 20.5mph 0mph 7.4mph
Raffica: 29.2mph - -
Direzione- - South
Pressione: 29.8 in 29.6 in -
Precipitazioni: 0.15 in    
 
 
Tabulato Dati per Novembre 04, 2022
Ora Temperatura Dew Point Pressione Direzione Velocità vento Raffica Umidità Intensità pioggia (oraria) Info solare Situazione
00:04 59 °F 57.2 °F 29.8 in ENE 11.8 mph 16.8 mph 96% 0.06 in 0.00 W/m2 unknown
00:09 59 °F 57.2 °F 29.8 in ENE 14.3 mph 18.6 mph 96% 0.07 in 0.00 W/m2 unknown
00:14 59 °F 57.2 °F 29.8 in ENE 11.8 mph 18 mph 96% 0.07 in 0.00 W/m2 unknown
00:19 59 °F 57.2 °F 29.8 in ENE 11.2 mph 16.2 mph 96% 0.07 in 0.00 W/m2 unknown
00:24 59 °F 57.2 °F 29.8 in ENE 8.7 mph 14.3 mph 96% 0.07 in 0.00 W/m2 unknown
00:29 59 °F 57.2 °F 29.8 in ENE 9.9 mph 14.3 mph 96% 0.06 in 0.00 W/m2 unknown
00:34 59 °F 57.2 °F 29.8 in ENE 9.3 mph 14.3 mph 96% 0.06 in 0.00 W/m2 unknown
00:39 59 °F 57.2 °F 29.8 in ENE 10.6 mph 14.9 mph 96% 0.06 in 0.00 W/m2 unknown
00:44 59 °F 57.2 °F 29.8 in ENE 8.7 mph 14.9 mph 96% 0.06 in 0.00 W/m2 unknown
00:49 59 °F 57.2 °F 29.7 in ENE 9.9 mph 13 mph 96% 0.06 in 0.00 W/m2 unknown
00:54 59 °F 57.2 °F 29.7 in ENE 10.6 mph 13 mph 96% 0.05 in 0.00 W/m2 unknown
00:59 59 °F 57.2 °F 29.7 in ENE 11.2 mph 16.2 mph 96% 0.05 in 0.00 W/m2 unknown
01:04 59 °F 57.2 °F 29.7 in ENE 10.6 mph 16.2 mph 96% 0.04 in 0.00 W/m2 unknown
01:09 59 °F 57.2 °F 29.7 in ENE 9.3 mph 14.3 mph 96% 0.03 in 0.00 W/m2 unknown
01:14 59 °F 57.2 °F 29.7 in ENE 9.3 mph 14.3 mph 96% 0.02 in 0.00 W/m2 unknown
01:19 59 °F 57.2 °F 29.7 in ENE 10.6 mph 14.9 mph 96% 0.02 in 0.00 W/m2 unknown
01:24 59 °F 57.2 °F 29.7 in ENE 11.8 mph 14.9 mph 96% 0.02 in 0.00 W/m2 unknown
01:29 59 °F 57.2 °F 29.7 in ENE 9.3 mph 14.9 mph 96% 0.02 in 0.00 W/m2 unknown
01:34 59 °F 57.2 °F 29.7 in ENE 10.6 mph 14.9 mph 96% 0.02 in 0.00 W/m2 unknown
01:39 59 °F 57.2 °F 29.7 in ENE 9.9 mph 14.9 mph 96% 0.02 in 0.00 W/m2 unknown
01:44 59 °F 57.2 °F 29.7 in East 8.7 mph 14.3 mph 96% 0.01 in 0.00 W/m2 unknown
01:49 59 °F 57.2 °F 29.7 in ENE 9.9 mph 13 mph 96% 0.01 in 0.00 W/m2 unknown
01:54 59 °F 57.2 °F 29.7 in East 9.3 mph 13 mph 96% 0.01 in 0.00 W/m2 unknown
01:59 59 °F 57.2 °F 29.7 in East 9.3 mph 13 mph 96% 0.01 in 0.00 W/m2 unknown
02:04 59 °F 59 °F 29.7 in East 8.7 mph 13 mph 96% 0.01 in 0.00 W/m2 unknown
02:09 59 °F 59 °F 29.7 in East 7.5 mph 11.8 mph 96% 0.01 in 0.00 W/m2 unknown
02:14 59 °F 59 °F 29.7 in ENE 8.7 mph 11.8 mph 96% 0.01 in 0.00 W/m2 unknown
02:19 59 °F 59 °F 29.7 in ENE 9.3 mph 13 mph 96% 0.01 in 0.00 W/m2 unknown
02:24 59 °F 59 °F 29.7 in East 8.7 mph 13 mph 96% 0 in 0.00 W/m2 unknown
02:29 59 °F 59 °F 29.7 in East 6.2 mph 13 mph 96% 0 in 0.00 W/m2 unknown
02:34 59 °F 59 °F 29.7 in ENE 7.5 mph 9.3 mph 96% 0 in 0.00 W/m2 unknown
02:39 59 °F 59 °F 29.7 in ENE 7.5 mph 10.6 mph 96% 0 in 0.00 W/m2 unknown
02:44 59 °F 59 °F 29.7 in ENE 8.7 mph 11.8 mph 96% 0 in 0.00 W/m2 unknown
02:49 59 °F 59 °F 29.7 in ENE 10.6 mph 16.2 mph 96% 0 in 0.00 W/m2 unknown
02:54 59 °F 59 °F 29.7 in ENE 10.6 mph 16.2 mph 96% 0 in 0.00 W/m2 unknown
02:59 59 °F 59 °F 29.7 in ENE 10.6 mph 16.2 mph 96% 0 in 0.00 W/m2 unknown
03:04 59 °F 59 °F 29.7 in ENE 8.7 mph 16.2 mph 96% 0 in 0.00 W/m2 unknown
03:09 59 °F 59 °F 29.7 in ENE 8.1 mph 14.9 mph 96% 0.01 in 0.00 W/m2 unknown
03:14 59 °F 59 °F 29.7 in ENE 10.6 mph 14.3 mph 96% 0.01 in 0.00 W/m2 unknown
03:19 59 °F 59 °F 29.6 in ENE 8.1 mph 14.3 mph 96% 0.01 in 0.00 W/m2 unknown
03:24 59 °F 59 °F 29.6 in ENE 8.7 mph 13 mph 96% 0.01 in 0.00 W/m2 unknown
03:29 59 °F 59 °F 29.6 in East 8.7 mph 13 mph 96% 0.01 in 0.00 W/m2 unknown
03:34 59 °F 59 °F 29.6 in ENE 6.8 mph 13 mph 96% 0.01 in 0.00 W/m2 unknown
03:39 59 °F 59 °F 29.6 in ENE 6.2 mph 9.9 mph 96% 0.01 in 0.00 W/m2 unknown
03:44 59 °F 59 °F 29.6 in East 6.2 mph 9.3 mph 96% 0.01 in 0.00 W/m2 unknown
03:49 59 °F 59 °F 29.6 in ENE 7.5 mph 10.6 mph 96% 0.01 in 0.00 W/m2 unknown
03:54 59 °F 59 °F 29.6 in East 7.5 mph 9.9 mph 96% 0.01 in 0.00 W/m2 unknown
03:59 59 °F 59 °F 29.6 in East 6.8 mph 10.6 mph 96% 0.01 in 0.00 W/m2 unknown
04:04 59 °F 59 °F 29.6 in East 6.2 mph 9.9 mph 96% 0.01 in 0.00 W/m2 unknown
04:09 59 °F 59 °F 29.6 in ENE 6.8 mph 10.6 mph 96% 0.01 in 0.00 W/m2 unknown
04:14 59 °F 59 °F 29.6 in ENE 5 mph 9.9 mph 96% 0.01 in 0.00 W/m2 unknown
04:19 59 °F 59 °F 29.6 in ENE 4.3 mph 6.8 mph 96% 0.01 in 0.00 W/m2 unknown
04:24 59 °F 59 °F 29.6 in ENE 5 mph 8.1 mph 96% 0 in 0.00 W/m2 unknown
04:29 59 °F 59 °F 29.6 in ENE 4.3 mph 8.1 mph 96% 0 in 0.00 W/m2 unknown
04:34 59 °F 59 °F 29.6 in ENE 5 mph 6.2 mph 96% 0 in 0.00 W/m2 unknown
04:39 59 °F 59 °F 29.6 in ENE 4.3 mph 6.8 mph 96% 0 in 0.00 W/m2 unknown
04:44 59 °F 59 °F 29.6 in ENE 3.1 mph 6.8 mph 96% 0 in 0.00 W/m2 unknown
04:49 59 °F 59 °F 29.6 in ENE 3.7 mph 5 mph 96% 0 in 0.00 W/m2 unknown
04:54 59 °F 59 °F 29.6 in NNE 3.1 mph 3.7 mph 96% 0 in 0.00 W/m2 unknown
04:59 59 °F 59 °F 29.6 in North 1.2 mph 3.1 mph 96% 0 in 0.00 W/m2 unknown
05:04 59 °F 59 °F 29.6 in NE 1.2 mph 2.5 mph 96% 0 in 0.00 W/m2 unknown
05:09 59 °F 59 °F 29.6 in NE 1.2 mph 2.5 mph 96% 0 in 0.00 W/m2 unknown
05:14 59 °F 59 °F 29.6 in NE 0.6 mph 1.9 mph 96% 0 in 0.00 W/m2 unknown
05:19 59 °F 59 °F 29.6 in NE 1.2 mph 2.5 mph 96% 0 in 0.00 W/m2 unknown
05:24 59 °F 59 °F 29.6 in Calm   1.9 mph 96% 0 in 0.00 W/m2 unknown
05:29 59 °F 59 °F 29.6 in NE 0.6 mph 1.2 mph 96% 0 in 0.00 W/m2 unknown
05:34 59 °F 59 °F 29.6 in Calm   1.2 mph 97% 0 in 0.00 W/m2 unknown
05:39 59 °F 59 °F 29.6 in Calm     97% 0 in 0.00 W/m2 unknown
05:44 59 °F 59 °F 29.6 in NE 0.6 mph 1.2 mph 97% 0 in 0.00 W/m2 unknown
05:49 59 °F 59 °F 29.6 in North 1.2 mph 2.5 mph 97% 0 in 0.00 W/m2 unknown
05:54 59 °F 59 °F 29.6 in West 1.9 mph 3.7 mph 97% 0 in 0.00 W/m2 unknown
05:59 59 °F 59 °F 29.6 in WSW 2.5 mph 3.7 mph 97% 0 in 0.00 W/m2 unknown
06:04 59 °F 59 °F 29.6 in WSW 2.5 mph 3.7 mph 97% 0 in 0.00 W/m2 unknown
06:09 59 °F 59 °F 29.6 in WSW 3.1 mph 5 mph 97% 0 in 0.00 W/m2 unknown
06:14 59 °F 59 °F 29.6 in SW 3.1 mph 5 mph 97% 0 in 0.00 W/m2 unknown
06:19 59 °F 59 °F 29.6 in SW 3.7 mph 3.7 mph 97% 0 in 0.00 W/m2 unknown
06:24 59 °F 59 °F 29.6 in SW 4.3 mph 6.2 mph 97% 0 in 0.00 W/m2 unknown
06:29 59 °F 59 °F 29.6 in WSW 4.3 mph 6.2 mph 97% 0.01 in 0.00 W/m2 unknown
06:34 59 °F 59 °F 29.6 in SW 6.2 mph 9.3 mph 97% 0.02 in 0.00 W/m2 unknown
06:39 59 °F 59 °F 29.6 in SW 8.7 mph 11.8 mph 97% 0.02 in 0.00 W/m2 unknown
06:44 59 °F 59 °F 29.6 in WSW 13.7 mph 18.6 mph 97% 0.02 in 0.00 W/m2 unknown
06:49 59 °F 57.2 °F 29.6 in West 11.8 mph 18 mph 96% 0.02 in 0.00 W/m2 unknown
06:54 57.2 °F 57.2 °F 29.6 in West 11.8 mph 16.2 mph 96% 0.03 in 0.00 W/m2 unknown
06:59 57.2 °F 57.2 °F 29.6 in West 12.4 mph 16.2 mph 96% 0.03 in 0.00 W/m2 unknown
07:04 57.2 °F 57.2 °F 29.6 in WSW 9.3 mph 16.2 mph 96% 0.03 in 0.00 W/m2 unknown
07:09 57.2 °F 57.2 °F 29.6 in West 11.8 mph 14.9 mph 96% 0.04 in 0.00 W/m2 unknown
07:14 57.2 °F 57.2 °F 29.6 in WSW 9.9 mph 14.9 mph 96% 0.04 in 0.00 W/m2 unknown
07:19 57.2 °F 57.2 °F 29.6 in West 9.9 mph 14.3 mph 96% 0.04 in 0.00 W/m2 unknown
07:24 57.2 °F 57.2 °F 29.6 in WSW 19.3 mph 29.2 mph 96% 0.05 in 0.00 W/m2 unknown
07:29 57.2 °F 55.4 °F 29.6 in West 20.5 mph 29.2 mph 96% 0.06 in 0.00 W/m2 unknown
07:34 55.4 °F 55.4 °F 29.6 in West 20.5 mph 29.2 mph 95% 0.06 in 0.00 W/m2 unknown
07:39 55.4 °F 53.6 °F 29.6 in West 19.3 mph 29.2 mph 95% 0.06 in 7.00 W/m2 unknown
07:44 53.6 °F 51.8 °F 29.6 in West 16.2 mph 24.2 mph 95% 0.06 in 33.00 W/m2 unknown
07:49 53.6 °F 51.8 °F 29.6 in West 14.3 mph 24.2 mph 95% 0.06 in 37.00 W/m2 unknown
07:54 53.6 °F 51.8 °F 29.6 in West 13.7 mph 19.9 mph 95% 0.05 in 26.00 W/m2 unknown
07:59 53.6 °F 51.8 °F 29.6 in West 13 mph 19.9 mph 94% 0.05 in 21.00 W/m2 unknown
08:04 53.6 °F 51.8 °F 29.6 in West 13 mph 19.9 mph 94% 0.05 in 14.00 W/m2 unknown
08:09 53.6 °F 51.8 °F 29.6 in WSW 11.8 mph 19.9 mph 94% 0.05 in 26.00 W/m2 unknown
08:14 53.6 °F 51.8 °F 29.6 in West 11.2 mph 16.8 mph 94% 0.05 in 28.00 W/m2 unknown
08:19 53.6 °F 51.8 °F 29.6 in West 10.6 mph 14.9 mph 93% 0.05 in 26.00 W/m2 unknown
08:24 53.6 °F 51.8 °F 29.6 in West 8.1 mph 14.3 mph 93% 0.06 in 33.00 W/m2 unknown
08:29 53.6 °F 51.8 °F 29.6 in West 7.5 mph 11.8 mph 93% 0.05 in 46.00 W/m2 unknown
08:34 53.6 °F 51.8 °F 29.6 in West 6.8 mph 11.8 mph 93% 0.04 in 74.00 W/m2 unknown
08:39 53.6 °F 51.8 °F 29.6 in West 6.8 mph 11.2 mph 93% 0.04 in 90.00 W/m2 unknown
08:44 53.6 °F 51.8 °F 29.6 in WSW 8.7 mph 11.8 mph 92% 0.03 in 204.00 W/m2 unknown
08:49 53.6 °F 51.8 °F 29.6 in WSW 11.2 mph 14.3 mph 92% 0.02 in 221.00 W/m2 unknown
08:54 53.6 °F 51.8 °F 29.6 in WSW 13.7 mph 17.4 mph 91% 0.02 in 316.00 W/m2 unknown
08:59 53.6 °F 51.8 °F 29.6 in WSW 12.4 mph 17.4 mph 91% 0.02 in 338.00 W/m2 unknown
09:04 55.4 °F 51.8 °F 29.6 in WSW 8.7 mph 16.8 mph 91% 0.02 in 332.00 W/m2 unknown
09:09 55.4 °F 51.8 °F 29.6 in WSW 11.2 mph 19.3 mph 90% 0.02 in 327.00 W/m2 unknown
09:14 55.4 °F 51.8 °F 29.6 in SW 13 mph 19.9 mph 89% 0.02 in 301.00 W/m2 unknown
09:19 55.4 °F 51.8 °F 29.6 in WSW 10.6 mph 19.9 mph 88% 0.02 in 294.00 W/m2 unknown
09:24 55.4 °F 51.8 °F 29.6 in WSW 11.8 mph 18.6 mph 88% 0.01 in 306.00 W/m2 unknown
09:29 55.4 °F 51.8 °F 29.6 in WSW 11.8 mph 19.9 mph 87% 0.01 in 315.00 W/m2 unknown
09:34 55.4 °F 51.8 °F 29.6 in WSW 13 mph 19.9 mph 87% 0 in 325.00 W/m2 unknown
09:39 55.4 °F 51.8 °F 29.6 in SW 14.9 mph 19.9 mph 87% 0 in 334.00 W/m2 unknown
09:44 57.2 °F 51.8 °F 29.6 in WSW 13.7 mph 21.7 mph 85% 0 in 345.00 W/m2 unknown
09:49 57.2 °F 51.8 °F 29.6 in WSW 14.9 mph 24.9 mph 85% 0 in 357.00 W/m2 unknown
09:54 57.2 °F 51.8 °F 29.6 in WSW 17.4 mph 25.5 mph 84% 0 in 366.00 W/m2 unknown
09:59 57.2 °F 51.8 °F 29.6 in West 13 mph 24.9 mph 83% 0 in 376.00 W/m2 unknown
10:04 57.2 °F 51.8 °F 29.6 in WSW 16.2 mph 24.2 mph 83% 0 in 385.00 W/m2 unknown
10:09 57.2 °F 51.8 °F 29.6 in WSW 16.2 mph 24.2 mph 81% 0 in 390.00 W/m2 unknown
10:14 59 °F 51.8 °F 29.6 in SW 14.9 mph 21.7 mph 81% 0 in 401.00 W/m2 unknown
10:19 59 °F 51.8 °F 29.6 in WSW 13.7 mph 21.1 mph 79% 0 in 408.00 W/m2 unknown
10:24 59 °F 51.8 °F 29.6 in WSW 18.6 mph 25.5 mph 78% 0 in 415.00 W/m2 unknown
10:29 59 °F 51.8 °F 29.6 in WSW 16.2 mph 24.9 mph 78% 0 in 422.00 W/m2 unknown
10:34 59 °F 51.8 °F 29.6 in SW 16.8 mph 24.2 mph 77% 0 in 429.00 W/m2 unknown
10:39 59 °F 51.8 °F 29.6 in WSW 14.3 mph 23 mph 78% 0 in 438.00 W/m2 unknown
10:44 59 °F 51.8 °F 29.6 in WSW 13.7 mph 21.1 mph 77% 0 in 443.00 W/m2 unknown
10:49 59 °F 51.8 °F 29.6 in WSW 16.8 mph 21.7 mph 77% 0 in 450.00 W/m2 unknown
10:54 59 °F 51.8 °F 29.6 in WSW 18.6 mph 24.2 mph 76% 0 in 454.00 W/m2 unknown
10:59 59 °F 51.8 °F 29.6 in WSW 17.4 mph 24.2 mph 74% 0 in 459.00 W/m2 unknown
11:04 60.8 °F 51.8 °F 29.6 in WSW 16.2 mph 23 mph 74% 0 in 464.00 W/m2 unknown
11:09 60.8 °F 51.8 °F 29.6 in WSW 16.8 mph 23 mph 74% 0 in 468.00 W/m2 unknown
11:14 60.8 °F 51.8 °F 29.6 in WSW 17.4 mph 23 mph 73% 0 in 473.00 W/m2 unknown
11:19 60.8 °F 51.8 °F 29.6 in WSW 16.2 mph 23 mph 73% 0 in 476.00 W/m2 unknown
11:24 60.8 °F 51.8 °F 29.6 in WSW 14.9 mph 21.1 mph 73% 0 in 480.00 W/m2 unknown
11:29 60.8 °F 51.8 °F 29.6 in WSW 13 mph 21.1 mph 73% 0 in 482.00 W/m2 unknown
11:34 60.8 °F 51.8 °F 29.6 in WSW 13.7 mph 18.6 mph 72% 0 in 483.00 W/m2 unknown
11:39 60.8 °F 51.8 °F 29.6 in WSW 14.3 mph 19.9 mph 70% 0 in 487.00 W/m2 unknown
11:44 60.8 °F 51.8 °F 29.6 in West 11.8 mph 19.9 mph 71% 0 in 487.00 W/m2 unknown
11:49 62.6 °F 51.8 °F 29.6 in WSW 13.7 mph 19.3 mph 71% 0.01 in 490.00 W/m2 unknown
11:54 62.6 °F 51.8 °F 29.6 in West 13.7 mph 19.9 mph 68% 0.01 in 492.00 W/m2 unknown
11:59 62.6 °F 51.8 °F 29.6 in West 11.8 mph 19.9 mph 68% 0.01 in 492.00 W/m2 unknown
12:04 62.6 °F 51.8 °F 29.6 in West 12.4 mph 17.4 mph 68% 0.01 in 494.00 W/m2 unknown
12:09 62.6 °F 51.8 °F 29.6 in West 11.2 mph 16.8 mph 67% 0.01 in 496.00 W/m2 unknown
12:14 62.6 °F 51.8 °F 29.6 in WSW 11.8 mph 16.2 mph 66% 0.01 in 496.00 W/m2 unknown
12:19 62.6 °F 51.8 °F 29.6 in West 13 mph 19.9 mph 66% 0.01 in 494.00 W/m2 unknown
12:24 62.6 °F 51.8 °F 29.6 in West 13 mph 19.9 mph 65% 0.01 in 494.00 W/m2 unknown
12:29 62.6 °F 51.8 °F 29.6 in West 12.4 mph 18 mph 65% 0.01 in 494.00 W/m2 unknown
12:34 62.6 °F 51.8 °F 29.6 in West 13.7 mph 18.6 mph 65% 0.01 in 492.00 W/m2 unknown
12:39 62.6 °F 50 °F 29.6 in West 14.3 mph 19.3 mph 63% 0.01 in 492.00 W/m2 unknown
12:44 62.6 °F 50 °F 29.6 in West 13 mph 19.9 mph 63% 0.01 in 490.00 W/m2 unknown
12:49 62.6 °F 50 °F 29.6 in West 13.7 mph 19.9 mph 63% 0.01 in 487.00 W/m2 unknown
12:54 62.6 °F 50 °F 29.6 in West 13.7 mph 18.6 mph 63% 0.01 in 485.00 W/m2 unknown
12:59 62.6 °F 50 °F 29.6 in West 13 mph 18.6 mph 63% 0 in 483.00 W/m2 unknown
13:04 62.6 °F 50 °F 29.6 in West 10.6 mph 18 mph 63% 0 in 478.00 W/m2 unknown
13:09 64.4 °F 51.8 °F 29.6 in West 10.6 mph 14.9 mph 64% 0 in 475.00 W/m2 unknown
13:14 64.4 °F 51.8 °F 29.6 in West 11.8 mph 17.4 mph 63% 0 in 471.00 W/m2 unknown
13:19 64.4 °F 50 °F 29.6 in West 11.8 mph 16.8 mph 62% 0 in 466.00 W/m2 unknown
13:24 64.4 °F 51.8 °F 29.6 in WNW 9.3 mph 14.3 mph 63% 0 in 462.00 W/m2 unknown
13:29 64.4 °F 51.8 °F 29.6 in WNW 9.9 mph 14.3 mph 62% 0 in 459.00 W/m2 unknown
13:34 64.4 °F 50 °F 29.6 in WNW 9.9 mph 13 mph 61% 0 in 452.00 W/m2 unknown
13:39 64.4 °F 50 °F 29.6 in West 8.7 mph 11.8 mph 60% 0 in 445.00 W/m2 unknown
13:44 64.4 °F 50 °F 29.6 in West 9.9 mph 14.9 mph 58% 0 in 438.00 W/m2 unknown
13:49 64.4 °F 50 °F 29.6 in West 9.9 mph 14.9 mph 60% 0 in 434.00 W/m2 unknown
13:54 64.4 °F 50 °F 29.6 in West 11.2 mph 14.9 mph 59% 0 in 427.00 W/m2 unknown
13:59 64.4 °F 50 °F 29.6 in WNW 11.8 mph 16.2 mph 58% 0 in 418.00 W/m2 unknown
14:04 64.4 °F 50 °F 29.6 in WNW 11.8 mph 16.2 mph 59% 0 in 410.00 W/m2 unknown
14:09 64.4 °F 50 °F 29.6 in West 11.8 mph 16.2 mph 59% 0 in 401.00 W/m2 unknown
14:14 64.4 °F 48.2 °F 29.6 in West 10.6 mph 16.2 mph 57% 0 in 394.00 W/m2 unknown
14:19 64.4 °F 48.2 °F 29.6 in WNW 11.2 mph 14.9 mph 58% 0 in 387.00 W/m2 unknown
14:24 64.4 °F 50 °F 29.6 in WNW 10.6 mph 14.9 mph 59% 0 in 378.00 W/m2 unknown
14:29 64.4 °F 50 °F 29.6 in WNW 11.8 mph 16.2 mph 58% 0 in 369.00 W/m2 unknown
14:34 64.4 °F 48.2 °F 29.6 in WNW 9.9 mph 16.2 mph 58% 0 in 359.00 W/m2 unknown
14:39 64.4 °F 50 °F 29.6 in WNW 9.9 mph 14.3 mph 59% 0 in 348.00 W/m2 unknown
14:44 64.4 °F 50 °F 29.6 in WNW 8.7 mph 11.8 mph 60% 0 in 338.00 W/m2 unknown
14:49 64.4 °F 50 °F 29.6 in WNW 8.1 mph 11.8 mph 60% 0 in 327.00 W/m2 unknown
14:54 64.4 °F 50 °F 29.6 in WNW 6.8 mph 11.8 mph 59% 0 in 316.00 W/m2 unknown
14:59 64.4 °F 50 °F 29.6 in WNW 8.1 mph 10.6 mph 59% 0 in 306.00 W/m2 unknown
15:04 64.4 °F 50 °F 29.6 in West 9.3 mph 13 mph 59% 0 in 294.00 W/m2 unknown
15:09 64.4 °F 50 °F 29.6 in WNW 8.1 mph 13 mph 59% 0 in 283.00 W/m2 unknown
15:14 64.4 °F 50 °F 29.6 in WNW 7.5 mph 11.8 mph 59% 0 in 271.00 W/m2 unknown
15:19 64.4 °F 50 °F 29.6 in WNW 8.1 mph 11.8 mph 60% 0 in 255.00 W/m2 unknown
15:24 64.4 °F 51.8 °F 29.6 in NNW 6.2 mph 11.8 mph 64% 0 in 246.00 W/m2 unknown
15:29 64.4 °F 51.8 °F 29.6 in North 6.2 mph 8.1 mph 65% 0 in 207.00 W/m2 unknown
15:34 64.4 °F 51.8 °F 29.6 in NNW 5.6 mph 9.3 mph 66% 0 in 211.00 W/m2 unknown
15:39 64.4 °F 51.8 °F 29.6 in North 6.2 mph 8.7 mph 66% 0 in 192.00 W/m2 unknown
15:44 62.6 °F 51.8 °F 29.6 in NNE 4.3 mph 6.8 mph 66% 0 in 155.00 W/m2 unknown
15:49 62.6 °F 51.8 °F 29.6 in NNE 3.7 mph 6.8 mph 66% 0 in 128.00 W/m2 unknown
15:54 62.6 °F 51.8 °F 29.6 in NNE 4.3 mph 6.8 mph 67% 0 in 142.00 W/m2 unknown
15:59 62.6 °F 51.8 °F 29.6 in North 6.8 mph 8.1 mph 67% 0 in 116.00 W/m2 unknown
16:04 62.6 °F 51.8 °F 29.6 in North 6.2 mph 9.3 mph 68% 0 in 109.00 W/m2 unknown
16:09 60.8 °F 51.8 °F 29.6 in North 6.2 mph 8.7 mph 68% 0 in 26.00 W/m2 unknown
16:14 60.8 °F 50 °F 29.6 in NNE 6.2 mph 8.1 mph 69% 0 in 25.00 W/m2 unknown
16:19 60.8 °F 50 °F 29.6 in North 5 mph 6.8 mph 69% 0 in 25.00 W/m2 unknown
16:24 60.8 °F 50 °F 29.6 in North 4.3 mph 6.2 mph 70% 0 in 23.00 W/m2 unknown
16:29 60.8 °F 50 °F 29.6 in North 4.3 mph 6.2 mph 70% 0 in 21.00 W/m2 unknown
16:34 60.8 °F 50 °F 29.6 in NNE 3.1 mph 6.2 mph 71% 0 in 19.00 W/m2 unknown
16:39 60.8 °F 50 °F 29.6 in NNE 3.1 mph 6.2 mph 72% 0 in 18.00 W/m2 unknown
16:44 59 °F 50 °F 29.6 in North 4.3 mph 5 mph 72% 0 in 14.00 W/m2 unknown
16:49 59 °F 50 °F 29.6 in North 2.5 mph 5 mph 73% 0 in 11.00 W/m2 unknown
16:54 59 °F 50 °F 29.6 in NNW 1.9 mph 3.7 mph 74% 0 in 7.00 W/m2 unknown
16:59 59 °F 50 °F 29.6 in NW 1.9 mph 3.7 mph 75% 0 in 5.00 W/m2 unknown
17:04 59 °F 50 °F 29.6 in NW 2.5 mph 3.7 mph 75% 0 in 0.00 W/m2 unknown
17:09 59 °F 50 °F 29.6 in WNW 1.9 mph 3.7 mph 74% 0 in 0.00 W/m2 unknown
17:14 59 °F 50 °F 29.6 in NNW 0.6 mph 1.9 mph 77% 0 in 0.00 W/m2 unknown
17:19 57.2 °F 50 °F 29.6 in North 1.2 mph 2.5 mph 79% 0 in 0.00 W/m2 unknown
17:24 55.4 °F 50 °F 29.6 in Calm     80% 0 in 0.00 W/m2 unknown
17:29 55.4 °F 50 °F 29.6 in Calm     81% 0 in 0.00 W/m2 unknown
17:34 55.4 °F 50 °F 29.6 in Calm     82% 0 in 0.00 W/m2 unknown
17:39 55.4 °F 50 °F 29.6 in NNW 1.2 mph 1.9 mph 83% 0 in 0.00 W/m2 unknown
17:44 55.4 °F 50 °F 29.6 in NW 1.9 mph 2.5 mph 83% 0 in 0.00 W/m2 unknown
17:49 55.4 °F 50 °F 29.6 in WNW 1.2 mph 2.5 mph 83% 0 in 0.00 W/m2 unknown
17:54 55.4 °F 50 °F 29.6 in WNW 1.2 mph 2.5 mph 83% 0 in 0.00 W/m2 unknown
17:59 55.4 °F 50 °F 29.6 in WNW 1.2 mph 2.5 mph 83% 0 in 0.00 W/m2 unknown
18:04 53.6 °F 50 °F 29.6 in NW 2.5 mph 3.1 mph 84% 0 in 0.00 W/m2 unknown
18:09 53.6 °F 50 °F 29.6 in NW 2.5 mph 3.7 mph 84% 0 in 0.00 W/m2 unknown
18:14 53.6 °F 50 °F 29.6 in WNW 3.1 mph 3.7 mph 84% 0 in 0.00 W/m2 unknown
18:19 53.6 °F 50 °F 29.6 in NW 2.5 mph 3.7 mph 84% 0 in 0.00 W/m2 unknown
18:24 53.6 °F 50 °F 29.6 in WNW 2.5 mph 3.7 mph 84% 0 in 0.00 W/m2 unknown
18:29 53.6 °F 48.2 °F 29.6 in West 3.1 mph 3.7 mph 83% 0 in 0.00 W/m2 unknown
18:34 53.6 °F 48.2 °F 29.6 in WSW 3.1 mph 3.7 mph 83% 0 in 0.00 W/m2 unknown
18:39 53.6 °F 48.2 °F 29.6 in SSW 4.3 mph 5 mph 83% 0 in 0.00 W/m2 unknown
18:44 53.6 °F 48.2 °F 29.6 in SW 5 mph 6.2 mph 83% 0 in 0.00 W/m2 unknown
18:49 53.6 °F 48.2 °F 29.6 in WSW 3.7 mph 6.2 mph 83% 0 in 0.00 W/m2 unknown
18:54 53.6 °F 48.2 °F 29.6 in West 3.7 mph 5 mph 83% 0 in 0.00 W/m2 unknown
18:59 53.6 °F 48.2 °F 29.6 in West 3.1 mph 5 mph 83% 0 in 0.00 W/m2 unknown
19:04 53.6 °F 48.2 °F 29.6 in SW 3.7 mph 3.7 mph 82% 0 in 0.00 W/m2 unknown
19:09 53.6 °F 48.2 °F 29.6 in SSW 5 mph 6.8 mph 81% 0 in 0.00 W/m2 unknown
19:14 53.6 °F 48.2 °F 29.6 in SSW 5 mph 6.8 mph 82% 0 in 0.00 W/m2 unknown
19:19 53.6 °F 48.2 °F 29.6 in SSW 3.1 mph 6.2 mph 82% 0 in 0.00 W/m2 unknown
19:24 53.6 °F 48.2 °F 29.6 in SSW 3.1 mph 5 mph 83% 0 in 0.00 W/m2 unknown
19:29 53.6 °F 48.2 °F 29.6 in SSW 2.5 mph 5 mph 84% 0 in 0.00 W/m2 unknown
19:34 51.8 °F 48.2 °F 29.6 in SSW 2.5 mph 3.7 mph 84% 0 in 0.00 W/m2 unknown
19:39 51.8 °F 48.2 °F 29.6 in SSW 1.2 mph 3.1 mph 85% 0 in 0.00 W/m2 unknown
19:44 51.8 °F 48.2 °F 29.6 in SSW 1.9 mph 3.7 mph 86% 0 in 0.00 W/m2 unknown
19:49 51.8 °F 48.2 °F 29.6 in SSW 2.5 mph 5 mph 85% 0 in 0.00 W/m2 unknown
19:54 51.8 °F 48.2 °F 29.6 in East 3.1 mph 5 mph 85% 0 in 0.00 W/m2 unknown
19:59 51.8 °F 48.2 °F 29.6 in ESE 0.6 mph 5 mph 86% 0 in 0.00 W/m2 unknown
20:04 51.8 °F 48.2 °F 29.6 in ENE 1.2 mph 1.9 mph 86% 0 in 0.00 W/m2 unknown
20:09 51.8 °F 48.2 °F 29.6 in NNE 1.2 mph 2.5 mph 87% 0 in 0.00 W/m2 unknown
20:14 51.8 °F 48.2 °F 29.6 in Calm   1.9 mph 87% 0 in 0.00 W/m2 unknown
20:19 50 °F 46.4 °F 29.7 in NNE 1.2 mph 2.5 mph 88% 0 in 0.00 W/m2 unknown
20:24 50 °F 46.4 °F 29.7 in NE 3.7 mph 3.7 mph 88% 0 in 0.00 W/m2 unknown
20:29 50 °F 46.4 °F 29.7 in NE 2.5 mph 3.7 mph 89% 0 in 0.00 W/m2 unknown
20:34 50 °F 46.4 °F 29.7 in NE 3.1 mph 3.7 mph 89% 0 in 0.00 W/m2 unknown
20:39 50 °F 46.4 °F 29.7 in Calm   3.1 mph 89% 0 in 0.00 W/m2 unknown
20:44 50 °F 46.4 °F 29.7 in Calm   1.2 mph 90% 0 in 0.00 W/m2 unknown
20:49 50 °F 46.4 °F 29.7 in Calm   1.2 mph 90% 0 in 0.00 W/m2 unknown
20:54 50 °F 46.4 °F 29.7 in NE 3.1 mph 3.7 mph 90% 0 in 0.00 W/m2 unknown
20:59 48.2 °F 46.4 °F 29.7 in NE 3.7 mph 6.2 mph 90% 0 in 0.00 W/m2 unknown
21:04 48.2 °F 46.4 °F 29.7 in NNE 4.3 mph 6.2 mph 90% 0 in 0.00 W/m2 unknown
21:09 48.2 °F 46.4 °F 29.7 in NNE 5 mph 6.2 mph 90% 0 in 0.00 W/m2 unknown
21:14 50 °F 46.4 °F 29.7 in NNE 5 mph 6.2 mph 89% 0 in 0.00 W/m2 unknown
21:19 50 °F 44.6 °F 29.7 in NE 5.6 mph 8.1 mph 87% 0 in 0.00 W/m2 unknown
21:24 50 °F 44.6 °F 29.7 in NE 6.2 mph 8.1 mph 86% 0 in 0.00 W/m2 unknown
21:29 48.2 °F 44.6 °F 29.7 in NNE 5 mph 6.2 mph 85% 0 in 0.00 W/m2 unknown
21:34 48.2 °F 44.6 °F 29.7 in NNE 3.1 mph 5 mph 85% 0 in 0.00 W/m2 unknown
21:39 48.2 °F 44.6 °F 29.7 in NNE 3.1 mph 5 mph 85% 0 in 0.00 W/m2 unknown
21:44 48.2 °F 44.6 °F 29.7 in NNE 1.9 mph 3.7 mph 85% 0 in 0.00 W/m2 unknown
21:49 48.2 °F 44.6 °F 29.7 in NE 2.5 mph 3.7 mph 85% 0 in 0.00 W/m2 unknown
21:54 48.2 °F 44.6 °F 29.7 in NNE 2.5 mph 3.7 mph 86% 0 in 0.00 W/m2 unknown
21:59 48.2 °F 44.6 °F 29.7 in NNE 1.9 mph 3.7 mph 86% 0 in 0.00 W/m2 unknown
22:04 48.2 °F 44.6 °F 29.7 in NE 2.5 mph 3.7 mph 86% 0 in 0.00 W/m2 unknown
22:09 48.2 °F 44.6 °F 29.7 in NNE 2.5 mph 3.7 mph 86% 0 in 0.00 W/m2 unknown
22:14 48.2 °F 44.6 °F 29.7 in NNE 2.5 mph 3.7 mph 86% 0 in 0.00 W/m2 unknown
22:19 48.2 °F 44.6 °F 29.7 in NE 1.2 mph 3.1 mph 87% 0 in 0.00 W/m2 unknown
22:24 48.2 °F 44.6 °F 29.7 in NE 0.6 mph 1.9 mph 87% 0 in 0.00 W/m2 unknown
22:29 48.2 °F 44.6 °F 29.7 in NE 1.9 mph 2.5 mph 87% 0 in 0.00 W/m2 unknown
22:34 48.2 °F 44.6 °F 29.7 in NE 1.2 mph 2.5 mph 88% 0 in 0.00 W/m2 unknown
22:39 48.2 °F 44.6 °F 29.7 in Calm   1.9 mph 88% 0 in 0.00 W/m2 unknown
22:44 48.2 °F 44.6 °F 29.7 in Calm     88% 0 in 0.00 W/m2 unknown
22:49 48.2 °F 44.6 °F 29.7 in NNE 1.2 mph 2.5 mph 89% 0 in 0.00 W/m2 unknown
22:54 48.2 °F 44.6 °F 29.7 in North 1.2 mph 2.5 mph 89% 0 in 0.00 W/m2 unknown
22:59 48.2 °F 44.6 °F 29.7 in North 1.2 mph 2.5 mph 89% 0 in 0.00 W/m2 unknown
23:04 48.2 °F 44.6 °F 29.7 in Calm   1.9 mph 89% 0 in 0.00 W/m2 unknown
23:09 48.2 °F 44.6 °F 29.7 in North 1.2 mph 2.5 mph 89% 0 in 0.00 W/m2 unknown
23:14 48.2 °F 44.6 °F 29.7 in North 1.9 mph 2.5 mph 89% 0 in 0.00 W/m2 unknown
23:19 48.2 °F 44.6 °F 29.7 in NNW 3.1 mph 3.7 mph 90% 0 in 0.00 W/m2 unknown
23:24 48.2 °F 44.6 °F 29.7 in NNW 2.5 mph 3.7 mph 90% 0 in 0.00 W/m2 unknown
23:29 48.2 °F 44.6 °F 29.7 in NNW 1.9 mph 3.7 mph 89% 0 in 0.00 W/m2 unknown
23:34 48.2 °F 44.6 °F 29.7 in NNW 1.9 mph 3.7 mph 89% 0 in 0.00 W/m2 unknown
23:39 48.2 °F 44.6 °F 29.7 in NW 1.9 mph 3.1 mph 89% 0 in 0.00 W/m2 unknown
23:44 48.2 °F 44.6 °F 29.7 in NNW 1.9 mph 3.7 mph 89% 0 in 0.00 W/m2 unknown
23:49 48.2 °F 44.6 °F 29.7 in NNW 1.9 mph 3.7 mph 89% 0 in 0.00 W/m2 unknown
23:54 48.2 °F 44.6 °F 29.7 in NNW 1.2 mph 3.1 mph 89% 0 in 0.00 W/m2 unknown
23:59 48.2 °F 44.6 °F 29.7 in NNW 1.9 mph 3.7 mph 89% 0 in 0.00 W/m2 unknown
Stazione Meteorologica MeteoMincio Rivalta s/M (MN)
Con i complimenti di Weather Underground - 4 mb



GLOSSARIO METEOROLOGICO
Vento
Il vento è prodotto dalla differenza di pressione tra due zone e serve per ristabilirne l'equilibrio. Dalla zona con pressione più alta l'aria affluisce a quella con pressione inferiore. Più le isobare (linee di ugual pressione) sono ravvicinate e più la forza del vento sarà intensa. Il vento è classificato dalla scala Beaufort. E' definito dalla sua direzione e dalla sua forza o, più esattamente, dalla sua velocità. Vento, pressione atmosferica e temperatura stanno in rapporto funzionale con l'andamento del tempo.
Share

Non seguire questo link o sarai bannato dal sito!